Time,TemperatureF,DewpointF,PressureIn,WindDirection,WindDirectionDegrees,WindSpeedMPH,WindSpeedGustMPH,Humidity,HourlyPrecipIn,Conditions,Clouds,dailyrainin,SoftwareType,DateUTC
2013-10-18 00:05:00,61.5,61.5,29.72,South,175,0.0,0.0,100,0.00,,,0.00,Wunderground v.1.15,2013-10-18 04:05:00,
2013-10-18 00:10:00,62.0,-99.9,29.72,SW,234,3.0,3.0,255,0.00,,,0.00,Wunderground v.1.15,2013-10-18 04:10:00,
2013-10-18 00:20:00,61.8,61.8,29.71,West,270,6.0,6.0,100,0.00,,,0.00,Wunderground v.1.15,2013-10-18 04:20:00,
2013-10-18 00:25:00,61.8,61.8,29.71,West,263,6.0,10.0,100,0.00,,,0.00,Wunderground v.1.15,2013-10-18 04:25:00,
2013-10-18 00:35:00,61.6,61.6,29.71,West,268,5.0,5.0,100,0.00,,,0.00,Wunderground v.1.15,2013-10-18 04:35:00,
2013-10-18 00:40:00,61.5,61.5,29.71,SW,232,5.0,6.0,100,0.00,,,0.00,Wunderground v.1.15,2013-10-18 04:40:00,
2013-10-18 00:50:00,61.5,61.5,29.70,WSW,258,4.0,5.0,100,0.00,,,0.00,Wunderground v.1.15,2013-10-18 04:50:00,
2013-10-18 00:55:00,61.5,61.5,29.70,WSW,257,5.0,5.0,100,0.00,,,0.00,Wunderground v.1.15,2013-10-18 04:55:00,
2013-10-18 01:05:00,61.6,61.6,29.71,WSW,256,5.0,6.0,100,0.00,,,0.00,Wunderground v.1.15,2013-10-18 05:05:00,
2013-10-18 01:10:00,61.6,61.6,29.71,WSW,250,5.0,5.0,100,0.00,,,0.00,Wunderground v.1.15,2013-10-18 05:10:00,
2013-10-18 01:20:00,61.6,61.6,29.71,WSW,254,4.0,4.0,100,0.00,,,0.01,Wunderground v.1.15,2013-10-18 05:20:00,
2013-10-18 01:25:00,61.6,61.6,29.71,WSW,254,2.0,4.0,100,0.00,,,0.01,Wunderground v.1.15,2013-10-18 05:25:00,
2013-10-18 01:35:00,61.5,61.5,29.70,SW,229,3.0,4.0,100,0.00,,,0.01,Wunderground v.1.15,2013-10-18 05:35:00,
2013-10-18 01:40:00,61.3,61.3,29.70,SW,227,4.0,4.0,100,0.00,,,0.01,Wunderground v.1.15,2013-10-18 05:40:00,
2013-10-18 01:50:00,60.9,60.9,29.70,SW,229,3.0,3.0,100,0.00,,,0.01,Wunderground v.1.15,2013-10-18 05:50:00,
2013-10-18 01:55:00,60.7,60.7,29.70,SW,236,3.0,5.0,100,0.00,,,0.01,Wunderground v.1.15,2013-10-18 05:55:00,
2013-10-18 02:05:00,60.7,60.7,29.70,SW,216,4.0,4.0,100,0.00,,,0.01,Wunderground v.1.15,2013-10-18 06:05:00,
2013-10-18 02:10:00,60.5,60.5,29.70,SSW,212,5.0,5.0,100,0.00,,,0.01,Wunderground v.1.15,2013-10-18 06:10:00,
2013-10-18 02:20:00,60.2,60.2,29.69,SSW,208,5.0,6.0,100,0.00,,,0.01,Wunderground v.1.15,2013-10-18 06:20:00,
2013-10-18 02:25:00,60.1,60.1,29.69,SSW,210,6.0,6.0,100,0.00,,,0.01,Wunderground v.1.15,2013-10-18 06:25:00,
2013-10-18 02:35:00,60.1,60.1,29.68,SW,215,6.0,9.0,100,0.00,,,0.01,Wunderground v.1.15,2013-10-18 06:35:00,
2013-10-18 02:40:00,60.1,60.1,29.68,SW,216,5.0,6.0,100,0.00,,,0.01,Wunderground v.1.15,2013-10-18 06:40:00,
2013-10-18 02:50:00,59.9,59.9,29.68,SSW,208,6.0,7.0,100,0.00,,,0.01,Wunderground v.1.15,2013-10-18 06:50:00,
2013-10-18 02:55:00,59.9,59.9,29.68,SSW,212,7.0,7.0,100,0.00,,,0.01,Wunderground v.1.15,2013-10-18 06:55:00,
2013-10-18 03:05:00,59.9,59.9,29.67,SSW,208,6.0,8.0,100,0.00,,,0.01,Wunderground v.1.15,2013-10-18 07:05:00,
2013-10-18 03:10:00,59.8,59.8,29.67,SW,220,7.0,10.0,100,0.00,,,0.01,Wunderground v.1.15,2013-10-18 07:10:00,
2013-10-18 03:20:00,59.8,59.8,29.67,SSW,206,7.0,10.0,100,0.00,,,0.01,Wunderground v.1.15,2013-10-18 07:20:00,
2013-10-18 03:25:00,59.8,59.8,29.67,SW,219,6.0,10.0,100,0.00,,,0.01,Wunderground v.1.15,2013-10-18 07:25:00,
2013-10-18 03:35:00,59.8,59.8,29.66,SSW,209,7.0,9.0,100,0.00,,,0.01,Wunderground v.1.15,2013-10-18 07:35:00,
2013-10-18 03:40:00,59.8,59.8,29.66,SSW,202,7.0,7.0,100,0.00,,,0.01,Wunderground v.1.15,2013-10-18 07:40:00,
2013-10-18 03:50:00,59.8,59.8,29.66,SW,219,6.0,10.0,100,0.00,,,0.01,Wunderground v.1.15,2013-10-18 07:50:00,
2013-10-18 03:55:00,59.8,59.8,29.66,SW,218,6.0,10.0,100,0.00,,,0.01,Wunderground v.1.15,2013-10-18 07:55:00,
2013-10-18 04:05:00,59.9,59.9,29.65,SW,220,5.0,6.0,100,0.00,,,0.01,Wunderground v.1.15,2013-10-18 08:05:00,
2013-10-18 04:10:00,59.9,59.9,29.65,SSW,206,6.0,6.0,100,0.00,,,0.01,Wunderground v.1.15,2013-10-18 08:10:00,
2013-10-18 04:20:00,60.1,60.1,29.65,SW,215,6.0,8.0,100,0.00,,,0.01,Wunderground v.1.15,2013-10-18 08:20:00,
2013-10-18 04:25:00,60.1,60.1,29.65,SW,216,6.0,8.0,100,0.00,,,0.01,Wunderground v.1.15,2013-10-18 08:25:00,
2013-10-18 04:35:00,60.1,60.1,29.65,SW,216,5.0,7.0,100,0.00,,,0.01,Wunderground v.1.15,2013-10-18 08:35:00,
2013-10-18 04:40:00,60.2,60.2,29.65,SSW,210,5.0,7.0,100,0.00,,,0.01,Wunderground v.1.15,2013-10-18 08:40:00,
2013-10-18 04:50:00,60.5,60.5,29.65,SSW,208,6.0,8.0,100,0.00,,,0.01,Wunderground v.1.15,2013-10-18 08:50:00,
2013-10-18 04:55:00,60.5,60.5,29.65,SW,227,7.0,8.0,100,0.00,,,0.01,Wunderground v.1.15,2013-10-18 08:55:00,
2013-10-18 05:05:00,60.5,60.5,29.64,SSW,206,7.0,7.0,100,0.00,,,0.01,Wunderground v.1.15,2013-10-18 09:05:00,
2013-10-18 05:10:00,60.5,60.5,29.64,SW,219,8.0,8.0,100,0.00,,,0.01,Wunderground v.1.15,2013-10-18 09:10:00,
2013-10-18 05:20:00,60.7,60.7,29.63,SW,229,7.0,7.0,100,0.00,,,0.01,Wunderground v.1.15,2013-10-18 09:20:00,
2013-10-18 05:25:00,60.7,60.7,29.63,SSW,209,7.0,7.0,100,0.00,,,0.01,Wunderground v.1.15,2013-10-18 09:25:00,
2013-10-18 05:35:00,60.7,60.7,29.63,SW,218,6.0,7.0,100,0.00,,,0.01,Wunderground v.1.15,2013-10-18 09:35:00,
2013-10-18 05:40:00,60.9,60.9,29.63,SSW,208,6.0,9.0,100,0.00,,,0.01,Wunderground v.1.15,2013-10-18 09:40:00,
2013-10-18 05:50:00,61.8,61.8,29.62,SSW,210,7.0,7.0,100,0.00,,,0.01,Wunderground v.1.15,2013-10-18 09:50:00,
2013-10-18 05:55:00,61.8,61.8,29.62,WSW,258,7.0,7.0,100,0.00,,,0.01,Wunderground v.1.15,2013-10-18 09:55:00,
2013-10-18 06:05:00,62.4,62.4,29.62,WSW,246,7.0,7.0,100,0.00,,,0.01,Wunderground v.1.15,2013-10-18 10:05:00,
2013-10-18 06:15:00,62.7,62.7,29.62,WSW,240,9.0,9.0,100,0.00,,,0.01,Wunderground v.1.15,2013-10-18 10:15:00,
2013-10-18 06:25:00,62.7,62.7,29.62,SSW,206,8.0,10.0,100,0.00,,,0.01,Wunderground v.1.15,2013-10-18 10:25:00,
2013-10-18 06:35:00,62.7,62.7,29.61,WNW,284,7.0,8.0,100,0.00,,,0.01,Wunderground v.1.15,2013-10-18 10:35:00,
2013-10-18 06:40:00,62.9,62.9,29.61,West,270,7.0,7.0,100,0.00,,,0.01,Wunderground v.1.15,2013-10-18 10:40:00,
2013-10-18 06:50:00,63.2,63.2,29.61,SW,219,8.0,9.0,100,0.00,,,0.01,Wunderground v.1.15,2013-10-18 10:50:00,
2013-10-18 06:55:00,63.2,63.2,29.61,WSW,246,8.0,9.0,100,0.00,,,0.01,Wunderground v.1.15,2013-10-18 10:55:00,
2013-10-18 07:05:00,63.1,63.1,29.62,West,267,8.0,8.0,100,0.00,,,0.01,Wunderground v.1.15,2013-10-18 11:05:00,
2013-10-18 07:10:00,63.1,63.1,29.62,West,266,8.0,9.0,100,0.00,,,0.01,Wunderground v.1.15,2013-10-18 11:10:00,
2013-10-18 07:20:00,63.2,63.2,29.62,WSW,253,8.0,8.0,100,0.00,,,0.01,Wunderground v.1.15,2013-10-18 11:20:00,
2013-10-18 07:25:00,63.2,63.2,29.62,WNW,290,9.0,9.0,100,0.00,,,0.01,Wunderground v.1.15,2013-10-18 11:25:00,
2013-10-18 07:35:00,63.2,63.2,29.62,West,260,8.0,9.0,100,0.00,,,0.01,Wunderground v.1.15,2013-10-18 11:35:00,
2013-10-18 07:40:00,63.2,63.2,29.62,West,271,8.0,13.0,100,0.00,,,0.01,Wunderground v.1.15,2013-10-18 11:40:00,
2013-10-18 07:50:00,63.4,63.4,29.63,West,280,7.0,7.0,100,0.00,,,0.01,Wunderground v.1.15,2013-10-18 11:50:00,
2013-10-18 07:55:00,63.4,63.4,29.63,WSW,247,8.0,8.0,100,0.00,,,0.01,Wunderground v.1.15,2013-10-18 11:55:00,
2013-10-18 08:05:00,63.5,63.5,29.63,WSW,250,8.0,11.0,100,0.00,,,0.01,Wunderground v.1.15,2013-10-18 12:05:00,
2013-10-18 08:10:00,63.5,63.5,29.63,NW,306,7.0,7.0,100,0.00,,,0.01,Wunderground v.1.15,2013-10-18 12:10:00,
2013-10-18 08:20:00,63.7,63.7,29.64,WNW,291,7.0,7.0,100,0.00,,,0.01,Wunderground v.1.15,2013-10-18 12:20:00,
2013-10-18 08:25:00,64.2,64.2,29.64,WSW,244,6.0,8.0,100,0.00,,,0.01,Wunderground v.1.15,2013-10-18 12:25:00,
2013-10-18 08:35:00,64.8,64.8,29.64,WNW,284,6.0,7.0,100,0.00,,,0.01,Wunderground v.1.15,2013-10-18 12:35:00,
2013-10-18 08:40:00,65.0,65.0,29.64,West,260,7.0,8.0,100,0.00,,,0.01,Wunderground v.1.15,2013-10-18 12:40:00,
2013-10-18 08:50:00,65.5,65.5,29.65,SW,222,6.0,10.0,100,0.00,,,0.01,Wunderground v.1.15,2013-10-18 12:50:00,
2013-10-18 08:55:00,65.8,65.8,29.65,WSW,258,6.0,10.0,100,0.00,,,0.01,Wunderground v.1.15,2013-10-18 12:55:00,
2013-10-18 09:05:00,66.3,66.3,29.65,West,274,7.0,12.0,100,0.00,,,0.01,Wunderground v.1.15,2013-10-18 13:05:00,
2013-10-18 09:10:00,66.4,66.4,29.65,West,271,6.0,6.0,100,0.00,,,0.01,Wunderground v.1.15,2013-10-18 13:10:00,
2013-10-18 09:20:00,61.8,61.8,29.65,South,175,4.0,4.0,100,0.00,,,0.01,Wunderground v.1.15,2013-10-18 13:20:00,
2013-10-18 09:25:00,61.8,61.8,29.65,South,175,1.0,4.0,100,0.00,,,0.01,Wunderground v.1.15,2013-10-18 13:25:00,
2013-10-18 09:35:00,67.3,67.3,29.66,WNW,292,0.0,2.0,100,0.00,,,0.01,Wunderground v.1.15,2013-10-18 13:35:00,
2013-10-18 09:40:00,67.3,67.3,29.66,WNW,295,2.0,2.0,100,0.00,,,0.01,Wunderground v.1.15,2013-10-18 13:40:00,
2013-10-18 09:50:00,67.6,67.6,29.67,WNW,295,6.0,7.0,100,0.00,,,0.01,Wunderground v.1.15,2013-10-18 13:50:00,
2013-10-18 09:55:00,67.9,67.9,29.67,WSW,254,6.0,14.0,100,0.00,,,0.01,Wunderground v.1.15,2013-10-18 13:55:00,
2013-10-18 10:05:00,61.8,61.8,29.67,South,175,3.0,6.0,100,0.00,,,0.01,Wunderground v.1.15,2013-10-18 14:05:00,
2013-10-18 10:10:00,61.8,61.8,29.67,South,175,0.0,0.0,100,0.00,,,0.01,Wunderground v.1.15,2013-10-18 14:10:00,
2013-10-18 10:20:00,61.8,61.8,29.68,South,174,0.0,0.0,100,0.00,,,0.01,Wunderground v.1.15,2013-10-18 14:20:00,
2013-10-18 10:25:00,61.6,61.6,29.68,South,175,0.0,0.0,100,0.00,,,0.01,Wunderground v.1.15,2013-10-18 14:25:00,
2013-10-18 10:35:00,61.6,61.6,29.68,South,174,0.0,0.0,100,0.00,,,0.01,Wunderground v.1.15,2013-10-18 14:35:00,
2013-10-18 10:40:00,61.6,61.6,29.68,South,175,0.0,0.0,100,0.00,,,0.01,Wunderground v.1.15,2013-10-18 14:40:00,
2013-10-18 10:50:00,61.6,61.6,29.68,South,175,0.0,0.0,100,0.00,,,0.01,Wunderground v.1.15,2013-10-18 14:50:00,
2013-10-18 10:55:00,61.6,61.6,29.68,South,175,0.0,0.0,100,0.00,,,0.01,Wunderground v.1.15,2013-10-18 14:55:00,
2013-10-18 11:05:00,61.6,61.6,29.69,South,174,0.0,0.0,100,0.00,,,0.01,Wunderground v.1.15,2013-10-18 15:05:00,
2013-10-18 11:10:00,61.6,61.6,29.69,South,174,0.0,0.0,100,0.00,,,0.01,Wunderground v.1.15,2013-10-18 15:10:00,
2013-10-18 11:20:00,61.6,61.6,29.69,South,175,0.0,0.0,100,0.00,,,0.01,Wunderground v.1.15,2013-10-18 15:20:00,
2013-10-18 11:25:00,61.8,61.8,29.69,South,175,0.0,0.0,100,0.00,,,0.01,Wunderground v.1.15,2013-10-18 15:25:00,
2013-10-18 11:35:00,61.8,61.8,29.69,South,175,0.0,0.0,100,0.00,,,0.01,Wunderground v.1.15,2013-10-18 15:35:00,
2013-10-18 11:40:00,61.8,61.8,29.69,South,175,0.0,0.0,100,0.00,,,0.01,Wunderground v.1.15,2013-10-18 15:40:00,
2013-10-18 11:50:00,62.0,62.0,29.70,South,174,0.0,0.0,100,0.00,,,0.01,Wunderground v.1.15,2013-10-18 15:50:00,
2013-10-18 11:55:00,62.0,62.0,29.70,South,174,0.0,0.0,100,0.00,,,0.01,Wunderground v.1.15,2013-10-18 15:55:00,
2013-10-18 12:05:00,62.0,62.0,29.70,South,174,0.0,0.0,100,0.00,,,0.01,Wunderground v.1.15,2013-10-18 16:05:00,
2013-10-18 12:10:00,62.0,62.0,29.70,South,175,0.0,0.0,100,0.00,,,0.01,Wunderground v.1.15,2013-10-18 16:10:00,
2013-10-18 12:20:00,62.1,61.8,29.70,South,174,0.0,0.0,99,0.00,,,0.01,Wunderground v.1.15,2013-10-18 16:20:00,
2013-10-18 12:25:00,62.1,61.8,29.70,South,175,0.0,0.0,99,0.00,,,0.01,Wunderground v.1.15,2013-10-18 16:25:00,
2013-10-18 12:35:00,62.3,62.3,29.70,South,175,0.0,0.0,100,0.00,,,0.01,Wunderground v.1.15,2013-10-18 16:35:00,
2013-10-18 12:40:00,62.3,62.0,29.70,South,175,0.0,0.0,99,0.00,,,0.01,Wunderground v.1.15,2013-10-18 16:40:00,
2013-10-18 12:50:00,62.3,62.0,29.69,South,175,0.0,0.0,99,0.00,,,0.01,Wunderground v.1.15,2013-10-18 16:50:00,
2013-10-18 12:55:00,62.3,62.3,29.69,South,175,0.0,0.0,100,0.00,,,0.01,Wunderground v.1.15,2013-10-18 16:55:00,
2013-10-18 13:05:00,62.4,62.4,29.69,South,175,0.0,0.0,100,0.00,,,0.01,Wunderground v.1.15,2013-10-18 17:05:00,
2013-10-18 13:10:00,62.3,62.3,29.69,South,175,0.0,0.0,100,0.00,,,0.01,Wunderground v.1.15,2013-10-18 17:10:00,
2013-10-18 13:20:00,62.4,62.4,29.69,South,175,0.0,0.0,100,0.00,,,0.01,Wunderground v.1.15,2013-10-18 17:20:00,
2013-10-18 13:25:00,62.3,60.8,29.69,South,175,0.0,0.0,95,0.00,,,0.01,Wunderground v.1.15,2013-10-18 17:25:00,
2013-10-18 13:35:00,62.4,61.5,29.69,South,175,0.0,0.0,97,0.00,,,0.01,Wunderground v.1.15,2013-10-18 17:35:00,
2013-10-18 13:40:00,62.4,61.5,29.69,South,175,0.0,0.0,97,0.00,,,0.01,Wunderground v.1.15,2013-10-18 17:40:00,
2013-10-18 13:50:00,62.4,61.2,29.70,South,174,0.0,0.0,96,0.00,,,0.01,Wunderground v.1.15,2013-10-18 17:50:00,
2013-10-18 13:55:00,62.6,62.0,29.70,South,174,0.0,0.0,98,0.00,,,0.01,Wunderground v.1.15,2013-10-18 17:55:00,
2013-10-18 14:05:00,62.6,61.7,29.70,South,175,0.0,0.0,97,0.00,,,0.01,Wunderground v.1.15,2013-10-18 18:05:00,
2013-10-18 14:10:00,62.6,62.0,29.70,South,175,0.0,0.0,98,0.00,,,0.01,Wunderground v.1.15,2013-10-18 18:10:00,
2013-10-18 14:20:00,62.6,62.0,29.71,South,175,0.0,0.0,98,0.00,,,0.01,Wunderground v.1.15,2013-10-18 18:20:00,
2013-10-18 14:25:00,62.6,62.0,29.71,South,175,0.0,0.0,98,0.00,,,0.01,Wunderground v.1.15,2013-10-18 18:25:00,
2013-10-18 14:35:00,62.7,61.8,29.71,South,174,0.0,0.0,97,0.00,,,0.01,Wunderground v.1.15,2013-10-18 18:35:00,
2013-10-18 14:40:00,62.7,62.1,29.71,South,175,0.0,0.0,98,0.00,,,0.01,Wunderground v.1.15,2013-10-18 18:40:00,
2013-10-18 14:50:00,62.9,62.3,29.71,South,175,0.0,0.0,98,0.00,,,0.01,Wunderground v.1.15,2013-10-18 18:50:00,
2013-10-18 14:55:00,63.1,62.2,29.71,South,175,0.0,0.0,97,0.00,,,0.01,Wunderground v.1.15,2013-10-18 18:55:00,
2013-10-18 15:05:00,63.1,62.8,29.72,South,175,0.0,0.0,99,0.00,,,0.01,Wunderground v.1.15,2013-10-18 19:05:00,
2013-10-18 15:10:00,63.1,62.2,29.72,South,174,0.0,0.0,97,0.00,,,0.01,Wunderground v.1.15,2013-10-18 19:10:00,
2013-10-18 15:20:00,63.1,62.5,29.72,South,175,0.0,0.0,98,0.00,,,0.01,Wunderground v.1.15,2013-10-18 19:20:00,
2013-10-18 15:25:00,63.1,62.5,29.72,South,175,0.0,0.0,98,0.00,,,0.01,Wunderground v.1.15,2013-10-18 19:25:00,
2013-10-18 15:35:00,63.1,62.2,29.72,South,175,0.0,0.0,97,0.00,,,0.01,Wunderground v.1.15,2013-10-18 19:35:00,
2013-10-18 15:40:00,69.6,69.6,29.72,West,260,2.0,8.0,100,0.00,,,0.01,Wunderground v.1.15,2013-10-18 19:40:00,
2013-10-18 15:50:00,69.1,69.1,29.72,WNW,284,7.0,7.0,100,0.00,,,0.01,Wunderground v.1.15,2013-10-18 19:50:00,
2013-10-18 15:55:00,68.3,68.3,29.72,West,266,8.0,11.0,100,0.00,,,0.01,Wunderground v.1.15,2013-10-18 19:55:00,
2013-10-18 16:05:00,67.6,67.6,29.73,NW,311,6.0,8.0,100,0.00,,,0.01,Wunderground v.1.15,2013-10-18 20:05:00,
2013-10-18 16:10:00,67.4,67.4,29.73,WNW,292,4.0,4.0,100,0.00,,,0.01,Wunderground v.1.15,2013-10-18 20:10:00,
2013-10-18 16:20:00,66.9,66.9,29.73,West,270,5.0,5.0,100,0.00,,,0.01,Wunderground v.1.15,2013-10-18 20:20:00,
2013-10-18 16:25:00,66.4,66.4,29.73,WNW,288,6.0,10.0,100,0.00,,,0.01,Wunderground v.1.15,2013-10-18 20:25:00,
2013-10-18 16:35:00,63.9,-99.9,29.74,South,175,5.0,12.0,255,0.00,,,0.01,Wunderground v.1.15,2013-10-18 20:35:00,
2013-10-18 16:40:00,63.9,63.0,29.74,South,175,1.0,1.0,97,0.00,,,0.01,Wunderground v.1.15,2013-10-18 20:40:00,
2013-10-18 16:50:00,64.2,63.6,29.74,South,175,0.0,0.0,98,0.00,,,0.01,Wunderground v.1.15,2013-10-18 20:50:00,
2013-10-18 16:55:00,64.2,63.6,29.74,South,174,0.0,0.0,98,0.00,,,0.01,Wunderground v.1.15,2013-10-18 20:55:00,
2013-10-18 17:05:00,64.5,63.9,29.74,South,174,0.0,0.0,98,0.00,,,0.01,Wunderground v.1.15,2013-10-18 21:05:00,
2013-10-18 17:10:00,64.5,63.9,29.74,South,175,0.0,0.0,98,0.00,,,0.01,Wunderground v.1.15,2013-10-18 21:10:00,
2013-10-18 17:20:00,64.7,63.8,29.75,South,175,0.0,0.0,97,0.00,,,0.01,Wunderground v.1.15,2013-10-18 21:20:00,
2013-10-18 17:25:00,64.7,63.8,29.75,South,175,0.0,0.0,97,0.00,,,0.01,Wunderground v.1.15,2013-10-18 21:25:00,
2013-10-18 17:35:00,64.5,63.0,29.76,South,174,0.0,0.0,95,0.00,,,0.01,Wunderground v.1.15,2013-10-18 21:35:00,
2013-10-18 17:40:00,64.5,62.7,29.76,South,174,0.0,0.0,94,0.00,,,0.01,Wunderground v.1.15,2013-10-18 21:40:00,
2013-10-18 17:50:00,64.3,62.5,29.76,South,175,0.0,0.0,94,0.00,,,0.01,Wunderground v.1.15,2013-10-18 21:50:00,
2013-10-18 17:55:00,64.2,62.4,29.76,South,175,0.0,0.0,94,0.00,,,0.01,Wunderground v.1.15,2013-10-18 21:55:00,
2013-10-18 18:05:00,64.0,62.2,29.77,South,175,0.0,0.0,94,0.00,,,0.01,Wunderground v.1.15,2013-10-18 22:05:00,
2013-10-18 18:10:00,63.9,62.1,29.77,South,175,0.0,0.0,94,0.00,,,0.01,Wunderground v.1.15,2013-10-18 22:10:00,
2013-10-18 18:20:00,63.7,61.6,29.77,South,174,0.0,0.0,93,0.00,,,0.01,Wunderground v.1.15,2013-10-18 22:20:00,
2013-10-18 18:25:00,63.7,61.6,29.77,South,174,0.0,0.0,93,0.00,,,0.01,Wunderground v.1.15,2013-10-18 22:25:00,
2013-10-18 18:35:00,63.5,61.7,29.77,South,175,0.0,0.0,94,0.00,,,0.01,Wunderground v.1.15,2013-10-18 22:35:00,
2013-10-18 18:40:00,63.4,61.6,29.77,South,175,0.0,0.0,94,0.00,,,0.01,Wunderground v.1.15,2013-10-18 22:40:00,
2013-10-18 18:50:00,63.2,61.4,29.78,South,175,0.0,0.0,94,0.00,,,0.01,Wunderground v.1.15,2013-10-18 22:50:00,
2013-10-18 18:55:00,63.1,61.0,29.78,South,175,0.0,0.0,93,0.00,,,0.01,Wunderground v.1.15,2013-10-18 22:55:00,
2013-10-18 19:05:00,62.9,60.8,29.79,South,175,0.0,0.0,93,0.00,,,0.01,Wunderground v.1.15,2013-10-18 23:05:00,
2013-10-18 19:10:00,62.9,60.8,29.79,South,175,0.0,0.0,93,0.00,,,0.01,Wunderground v.1.15,2013-10-18 23:10:00,
2013-10-18 19:20:00,62.6,60.5,29.79,South,174,0.0,0.0,93,0.00,,,0.01,Wunderground v.1.15,2013-10-18 23:20:00,
2013-10-18 19:25:00,62.6,60.2,29.79,South,175,0.0,0.0,92,0.00,,,0.01,Wunderground v.1.15,2013-10-18 23:25:00,
2013-10-18 19:35:00,62.3,59.9,29.80,South,175,0.0,0.0,92,0.00,,,0.01,Wunderground v.1.15,2013-10-18 23:35:00,
2013-10-18 19:40:00,62.1,59.7,29.80,South,175,0.0,0.0,92,0.00,,,0.01,Wunderground v.1.15,2013-10-18 23:40:00,
2013-10-18 19:50:00,61.8,59.5,29.80,South,174,0.0,0.0,92,0.00,,,0.01,Wunderground v.1.15,2013-10-18 23:50:00,
2013-10-18 19:55:00,61.6,58.9,29.80,South,175,0.0,0.0,91,0.00,,,0.01,Wunderground v.1.15,2013-10-18 23:55:00,
2013-10-18 20:05:00,61.5,58.8,29.80,South,175,0.0,0.0,91,0.00,,,0.01,Wunderground v.1.15,2013-10-19 00:05:00,
2013-10-18 20:10:00,61.3,58.3,29.80,South,175,0.0,0.0,90,0.00,,,0.01,Wunderground v.1.15,2013-10-19 00:10:00,
2013-10-18 20:20:00,61.0,57.7,29.81,South,175,0.0,0.0,89,0.00,,,0.01,Wunderground v.1.15,2013-10-19 00:20:00,
2013-10-18 20:25:00,60.9,57.3,29.81,South,175,0.0,0.0,88,0.00,,,0.01,Wunderground v.1.15,2013-10-19 00:25:00,
2013-10-18 20:35:00,60.7,57.1,29.82,South,175,0.0,0.0,88,0.00,,,0.01,Wunderground v.1.15,2013-10-19 00:35:00,
2013-10-18 20:40:00,60.5,56.9,29.82,South,175,0.0,0.0,88,0.00,,,0.01,Wunderground v.1.15,2013-10-19 00:40:00,
2013-10-18 20:50:00,60.1,56.5,29.82,South,175,0.0,0.0,88,0.00,,,0.01,Wunderground v.1.15,2013-10-19 00:50:00,
2013-10-18 20:55:00,59.9,56.3,29.82,South,174,0.0,0.0,88,0.00,,,0.01,Wunderground v.1.15,2013-10-19 00:55:00,
2013-10-18 21:05:00,59.5,55.6,29.82,South,174,0.0,0.0,87,0.00,,,0.01,Wunderground v.1.15,2013-10-19 01:05:00,
2013-10-18 21:10:00,59.3,55.4,29.82,South,175,0.0,0.0,87,0.00,,,0.01,Wunderground v.1.15,2013-10-19 01:10:00,
2013-10-18 21:20:00,58.9,55.0,29.83,South,175,0.0,0.0,87,0.00,,,0.01,Wunderground v.1.15,2013-10-19 01:20:00,
2013-10-18 21:25:00,58.7,54.5,29.83,South,175,0.0,0.0,86,0.00,,,0.01,Wunderground v.1.15,2013-10-19 01:25:00,
2013-10-18 21:35:00,58.4,54.2,29.84,South,175,0.0,0.0,86,0.00,,,0.01,Wunderground v.1.15,2013-10-19 01:35:00,
2013-10-18 21:40:00,58.3,54.1,29.84,South,174,0.0,0.0,86,0.00,,,0.01,Wunderground v.1.15,2013-10-19 01:40:00,
2013-10-18 21:50:00,58.1,53.9,29.85,South,175,0.0,0.0,86,0.00,,,0.01,Wunderground v.1.15,2013-10-19 01:50:00,
2013-10-18 21:55:00,58.0,53.5,29.85,South,175,0.0,0.0,85,0.00,,,0.01,Wunderground v.1.15,2013-10-19 01:55:00,
2013-10-18 22:05:00,58.0,53.5,29.85,South,175,0.0,0.0,85,0.00,,,0.01,Wunderground v.1.15,2013-10-19 02:05:00,
2013-10-18 22:10:00,57.8,53.3,29.85,South,175,0.0,0.0,85,0.00,,,0.01,Wunderground v.1.15,2013-10-19 02:10:00,
2013-10-18 22:20:00,57.8,53.0,29.85,South,175,0.0,0.0,84,0.00,,,0.01,Wunderground v.1.15,2013-10-19 02:20:00,
2013-10-18 22:25:00,57.8,53.0,29.85,South,175,0.0,0.0,84,0.00,,,0.01,Wunderground v.1.15,2013-10-19 02:25:00,
2013-10-18 22:35:00,57.6,52.8,29.86,South,175,0.0,0.0,84,0.00,,,0.01,Wunderground v.1.15,2013-10-19 02:35:00,
2013-10-18 22:40:00,57.6,52.5,29.86,South,175,0.0,0.0,83,0.00,,,0.01,Wunderground v.1.15,2013-10-19 02:40:00,
2013-10-18 22:50:00,57.5,52.4,29.86,South,175,0.0,0.0,83,0.00,,,0.01,Wunderground v.1.15,2013-10-19 02:50:00,
2013-10-18 22:55:00,57.5,52.0,29.86,South,174,0.0,0.0,82,0.00,,,0.01,Wunderground v.1.15,2013-10-19 02:55:00,
2013-10-18 23:05:00,57.3,51.5,29.86,South,175,0.0,0.0,81,0.00,,,0.01,Wunderground v.1.15,2013-10-19 03:05:00,
2013-10-18 23:10:00,57.3,51.5,29.86,South,175,0.0,0.0,81,0.00,,,0.01,Wunderground v.1.15,2013-10-19 03:10:00,
2013-10-18 23:20:00,57.2,50.7,29.85,South,174,0.0,0.0,79,0.00,,,0.01,Wunderground v.1.15,2013-10-19 03:20:00,
2013-10-18 23:25:00,57.2,50.7,29.85,South,175,0.0,0.0,79,0.00,,,0.01,Wunderground v.1.15,2013-10-19 03:25:00,
2013-10-18 23:35:00,57.2,50.7,29.85,South,175,0.0,0.0,79,0.00,,,0.01,Wunderground v.1.15,2013-10-19 03:35:00,
2013-10-18 23:40:00,57.3,50.5,29.85,South,175,0.0,0.0,78,0.00,,,0.01,Wunderground v.1.15,2013-10-19 03:40:00,
2013-10-18 23:50:00,57.3,50.8,29.86,South,175,0.0,0.0,79,0.00,,,0.01,Wunderground v.1.15,2013-10-19 03:50:00,
2013-10-18 23:55:00,57.3,50.5,29.86,South,175,0.0,0.0,78,0.00,,,0.01,Wunderground v.1.15,2013-10-19 03:55:00,